#timestamp,LO_Frequency,Hit,StdDev 
1662649215.4,286047000.4,N
1662649235.2,286047005.1,N
1662649255.1,286047003.6,N
1662649256.0,286047003.6,N
1662649275.8,286047001.5,N
1662649295.6,286047000.9,N
1662649315.5,286046999.7,N
1662649335.3,286047004.1,N
1662649355.2,286047001.3,N
1662649375.9,286047002.2,N
1662649395.7,286047000.8,N
1662649415.6,286046999.8,N
1662649435.4,286046997.7,N
1662649455.2,286046994.4,N
1662649475.1,286046994.2,N
1662649476.0,286046994.2,N
1662649495.8,286046993.3,N
1662649515.7,286046991.9,N
1662649535.5,286046992.7,N
1662649555.3,286046990.6,N
1662649575.2,286046989.5,N
1662649595.9,286046991.0,N
1662649615.7,286046987.1,N
1662649635.6,286046985.7,N
1662649655.4,286046984.4,N
1662649675.2,286046986.6,N
1662649695.1,286046986.6,N
1662649696.0,286046986.6,N
1662649715.8,286046985.2,N
1662649735.7,286046982.4,N
1662649755.5,286046981.8,N
1662649775.3,286046982.5,N
1662649795.2,286046984.9,N
1662649815.0,286046984.4,N
1662649815.9,286046984.4,N
1662649835.8,286046984.4,N
1662649855.6,286046986.1,N
1662649875.4,286046992.7,N
1662649895.3,286046992.4,N
1662649915.1,286046988.5,N
1662649935.8,286046987.0,N
1662649955.7,286046984.0,Y
1662649975.5,286046994.2,P
1662649995.4,286046994.3,N
1662650015.2,286046994.4,N
1662650035.0,286046993.9,N
1662650035.9,286046993.9,N
1662650055.8,286046994.8,N
1662650075.6,286046994.8,N
1662650095.5,286046992.7,Y
1662650115.3,286046994.9,P
1662650135.1,286046995.5,P
1662650155.9,286046995.2,P
1662650175.7,286046994.0,Y
1662650195.5,286046997.3,P
1662650215.4,286046997.8,N
1662650235.2,286046995.3,P
1662650255.1,286046999.6,N
1662650256.0,286046999.6,N
1662650275.8,286046997.0,N
1662650295.6,286047002.6,N
1662650315.5,286047001.3,N
1662650335.3,286047004.3,N
1662650355.1,286046998.6,N
1662650375.9,286046998.9,N
1662650395.7,286046996.7,N
1662650415.6,286046997.4,N
1662650435.4,286046997.8,N
1662650455.2,286046993.4,N
1662650475.1,286046993.5,N
1662650476.0,286046993.5,N
1662650495.8,286046995.4,N
1662650515.6,286046996.3,N
1662650535.5,286046995.5,N
1662650555.3,286046996.7,N
1662650575.2,286046996.1,N
1662650595.9,286046998.0,N
1662650615.7,286047000.7,N
1662650635.6,286046999.9,N
1662650655.4,286047002.8,N
1662650675.2,286046997.4,N
1662650695.1,286046998.7,N
1662650696.0,286046998.7,N
1662650715.8,286047000.8,N
1662650735.7,286047002.0,N
1662650755.5,286047003.0,N
1662650775.3,286047002.9,N
1662650795.2,286047000.1,N
1662650815.9,286046996.9,N
1662650835.7,286046997.0,N
1662650855.6,286046999.1,N
1662650875.4,286047000.6,N
1662650895.3,286047002.6,N
1662650915.1,286047004.1,N
1662650916.0,286047004.1,N
1662650935.8,286047002.3,N
1662650955.7,286047003.3,N
1662650975.5,286047006.0,N
1662650995.3,286047002.7,N
1662651015.2,286046999.6,N
1662651035.0,286046997.6,N
1662651035.9,286046997.6,N
1662651055.8,286046995.8,N
1662651075.6,286046993.7,N
1662651095.4,286046997.5,N
1662651115.3,286046995.1,N
1662651135.1,286046998.0,N
1662651155.8,286046998.0,N
1662651175.7,286046997.5,N
1662651195.5,286046997.7,N
1662651215.3,286046999.2,N
1662651235.2,286046997.0,N
1662651255.0,286046999.3,N
1662651255.9,286046999.3,N
1662651275.8,286046998.9,N
1662651295.6,286047001.1,N
1662651315.4,286047000.9,N
1662651335.3,286046998.8,N
1662651355.1,286046997.7,N
1662651375.9,286046997.2,N
1662651395.7,286047001.3,N
1662651415.5,286047001.9,N
1662651435.4,286047001.5,N
1662651455.2,286047001.3,N
1662651475.0,286047001.2,N
1662651475.9,286047001.2,N
1662651495.3,286047001.0,N
1662651515.2,286046997.2,N
1662651535.0,286046997.5,N
1662651535.9,286046997.5,N
1662651555.8,286046996.2,N
1662651575.6,286046996.4,N
1662651595.4,286046994.7,N
1662651615.3,286046996.3,N
1662651635.1,286046994.6,N
1662651655.9,286046995.6,N
1662651675.7,286046994.4,N
1662651695.5,286046992.4,Y
1662651715.4,286046996.2,P
1662651735.2,286046993.9,P
1662651755.0,286046993.5,P
1662651755.9,286046993.5,Y
1662651775.8,286046998.9,P
1662651795.6,286047000.6,N
1662651815.5,286046998.5,N
1662651835.3,286047001.1,N
1662651855.1,286047001.0,N
1662651875.9,286047002.4,N
1662651895.7,286047004.7,N
1662651915.5,286047003.5,N
1662651935.4,286047006.3,N
1662651955.2,286047006.7,N
1662651975.1,286047005.5,N
1662651976.0,286047005.5,N
1662651995.8,286047003.7,N
1662652015.6,286047006.1,N
1662652035.5,286047008.9,N
1662652055.3,286047009.9,N
1662652075.1,286047010.4,N
1662652095.9,286047008.3,N
1662652115.7,286047007.9,N
1662652135.6,286047012.0,Y
1662652155.4,286047005.4,P
1662652175.2,286047004.8,P
1662652195.1,286047005.0,P
1662652196.0,286047005.0,Y
1662652215.8,286047002.5,P
1662652235.7,286047004.6,P
1662652255.5,286047011.1,P
1662652275.3,286047016.1,Y
1662652295.2,286047011.2,P
1662652315.0,286047016.0,P
1662652315.9,286047016.0,P
1662652335.7,286047019.3,Y
1662652355.6,286047010.3,P
1662652375.4,286047009.5,P
1662652395.3,286047009.5,P
1662652415.1,286047012.6,Y
1662652416.0,286047012.6,P
1662652435.8,286047009.0,P
1662652455.7,286047007.4,P
1662652475.5,286047005.2,N
1662652495.3,286047004.1,N
1662652515.2,286046996.9,N
1662652535.0,286046994.5,N
1662652535.9,286046994.5,N
1662652555.8,286046990.8,N
1662652575.6,286046987.3,N
1662652595.4,286046986.4,N
1662652615.3,286046985.3,N
1662652635.1,286046987.5,N
1662652655.9,286046985.4,N
1662652675.7,286046982.6,N
1662652695.5,286046986.3,N
1662652715.4,286046987.7,N
1662652735.2,286046985.3,N
1662652755.0,286046984.9,N
1662652755.9,286046984.9,N
1662652775.8,286046984.2,N
1662652795.6,286046991.6,N
